User: anonymous   Login
Location: Baix
(44.7118°N, 4.7648°E)
Time: 21:07:37
(UTC+00:00)
Language:

Meteor 2-13 Rocket - Orbit

View from above orbital plane
View from above orbital plane
View from above satellite
View from above satellite

Ground track
Ground track

The orbit data is extracted from the following two-line orbital elements,

1 16409U 85119B   21209.80889364  .00000009  00000-0 -55072-5 0  9998
2 16409  82.5349 243.2051 0016041 124.0818 236.1868 13.84818612798501
Epoch (UTC): 28 July 2021 19:24:48
Eccentricity: 0.0016041
inclination: 82.5349°
perigee height: 935 km
apogee height: 958 km
right ascension of ascending node: 243.2051°
argument of perigee: 124.0818°
revolutions per day: 13.84818612
mean anomaly at epoch: 236.1868°
orbit number at epoch: 79850

The dashed part of the orbit path shows where the satellite is in the earth's shadow,  

DLR